Location: Borovka
(49.7741°N, 14.5280°E)
Time: 01:44:25
(UTC+00:00)

BlueWalker 3 - Pass Details

Date: 30 January 2026
Orbit: 451 x 461 km, 53.2° (Epoch: 13 February)

Event Time Altitude Azimuth Distance (km) Brightness Sun altitude
Rises 16:53:26 0° 269° (W) 2,458 7.2 -9.9°
Reaches altitude 10° 16:55:37 10° 275° (W) 1,585 5.7 -10.2°
Maximum altitude 16:59:05 49° 352° (N) 588 2.2 -10.8°
Enters shadow 17:01:37 17° 64° (ENE) 1,225 3.3 -11.1°
